Location: Pedholt
(56.0260°N, 10.2097°E)
Time: 01:38:26
(UTC+00:00)

Transit 2A Rocket - Pass Details

Date: 02 August 2021
Orbit: 586 x 917 km, 66.7° (Epoch: 27 September)

Event Time Altitude Azimuth Distance (km) Brightness Sun altitude
Rises 20:01:49 0° 313° (NW) 3,159 11.3 -4.9°
Reaches altitude 10° 20:04:09 10° 318° (NW) 2,286 9.4 -5.2°
Maximum altitude 20:09:21 57° 38° (NE) 944 5.6 -5.7°
Drops below altitude 10° 20:15:01 10° 117° (ESE) 2,489 7.0 -6.3°
Enters shadow 20:15:54 - 119° (ESE) 2,812 7.3 -6.4°
Sets 20:17:38 0° 121° (ESE) 3,463 - -6.5°
